SEH2NWQ LGST-LGAL

Flight info

Callsign SEH2NWQ
Flight time 1h 19m
Altitude 24000
Route DELAV DCT ASTIS DCT ERIMA DCT MES UL618 LMO
Aircraft AT46/M-SDFGIRY/S

Departure

Time 2026-04-29 11:44
Airport Sitia Airport (LGST)

Arrival

Time 2026-04-29 13:03
Airport Alexandroupoli Democritus Airport (LGAL)
Time Latitude Longitude Altitude Speed Heading
2026-04-29 11:43 35.30348 26.17472 4220 ft 247 kts 31°
2026-04-29 11:44 35.31781 26.18627 4908 ft 243 kts 31°
2026-04-29 11:44 35.33184 26.19757 5616 ft 242 kts 31°
2026-04-29 11:44 35.34600 26.20901 6254 ft 245 kts 31°
2026-04-29 11:44 35.36030 26.22061 6863 ft 248 kts 31°
2026-04-29 11:45 35.37475 26.23225 7452 ft 250 kts 31°
2026-04-29 11:45 35.38933 26.24413 8074 ft 252 kts 31°
2026-04-29 11:45 35.40404 26.25610 8708 ft 256 kts 31°
2026-04-29 11:45 35.41892 26.26825 9341 ft 259 kts 31°
2026-04-29 11:46 35.43402 26.28047 9988 ft 261 kts 31°
2026-04-29 11:46 35.44929 26.29278 10578 ft 264 kts 31°
2026-04-29 11:46 35.46471 26.30525 11181 ft 267 kts 31°
2026-04-29 11:46 35.48031 26.31793 11799 ft 270 kts 30°
2026-04-29 11:47 35.49602 26.33067 12426 ft 272 kts 31°
2026-04-29 11:47 35.51187 26.34354 13066 ft 274 kts 30°
2026-04-29 11:47 35.52788 26.35645 13722 ft 276 kts 30°
2026-04-29 11:47 35.54401 26.36945 14319 ft 279 kts 30°
2026-04-29 11:48 35.56030 26.38260 14915 ft 282 kts 30°
2026-04-29 11:48 35.57653 26.39581 15515 ft 284 kts 31°
2026-04-29 11:48 35.59305 26.40932 16135 ft 287 kts 30°
2026-04-29 11:48 35.60981 26.42290 16768 ft 290 kts 31°
2026-04-29 11:49 35.62675 26.43672 17406 ft 293 kts 31°
2026-04-29 11:49 35.64384 26.45064 18070 ft 296 kts 31°
2026-04-29 11:49 35.66108 26.46466 18686 ft 298 kts 31°
2026-04-29 11:49 35.67835 26.47878 19270 ft 299 kts 31°
2026-04-29 11:50 35.69565 26.49294 19873 ft 299 kts 31°
2026-04-29 11:50 35.71296 26.50704 20483 ft 298 kts 31°
2026-04-29 11:50 35.73020 26.52106 21112 ft 296 kts 31°
2026-04-29 11:50 35.74736 26.53511 21753 ft 295 kts 31°
2026-04-29 11:51 35.76438 26.54904 22407 ft 293 kts 31°
2026-04-29 11:51 35.78128 26.56288 23075 ft 290 kts 31°
2026-04-29 11:51 35.79237 26.57196 23527 ft 289 kts 31°
2026-04-29 11:51 35.81491 26.59034 23995 ft 299 kts 31°
2026-04-29 11:52 35.82662 26.59981 24010 ft 308 kts 29°
2026-04-29 11:52 35.84696 26.60824 24025 ft 313 kts
2026-04-29 11:52 35.87541 26.60250 24034 ft 317 kts 338°
2026-04-29 11:52 35.89574 26.59160 24042 ft 321 kts 332°
2026-04-29 11:53 35.91597 26.57953 24044 ft 325 kts 332°
2026-04-29 11:53 35.93655 26.56770 24044 ft 328 kts 334°
2026-04-29 11:53 35.95047 26.56026 24044 ft 330 kts 335°
2026-04-29 11:53 35.97174 26.54927 24046 ft 332 kts 335°
2026-04-29 11:54 35.99305 26.53803 24045 ft 333 kts 335°
2026-04-29 11:54 36.01443 26.52669 24048 ft 334 kts 335°
2026-04-29 11:54 36.03581 26.51536 24048 ft 335 kts 335°
2026-04-29 11:54 36.05725 26.50399 24044 ft 335 kts 335°
2026-04-29 11:55 36.07870 26.49260 24046 ft 336 kts 335°
2026-04-29 11:55 36.10015 26.48117 24044 ft 336 kts 335°
2026-04-29 11:55 36.12162 26.46977 24040 ft 336 kts 335°
2026-04-29 11:55 36.14310 26.45832 24040 ft 336 kts 335°
2026-04-29 11:56 36.16460 26.44690 24044 ft 336 kts 335°
2026-04-29 11:56 36.18611 26.43542 24044 ft 336 kts 335°
2026-04-29 11:56 36.20763 26.42398 24042 ft 337 kts 335°
2026-04-29 11:56 36.22912 26.41251 24042 ft 336 kts 335°
2026-04-29 11:57 36.25059 26.40103 24040 ft 336 kts 335°
2026-04-29 11:57 36.27210 26.38957 24045 ft 336 kts 335°
2026-04-29 11:57 36.29329 26.37824 24045 ft 336 kts 335°
2026-04-29 11:57 36.31504 26.36660 24040 ft 336 kts 335°
2026-04-29 11:58 36.33623 26.35526 24042 ft 336 kts 335°
2026-04-29 11:58 36.35772 26.34378 24040 ft 336 kts 335°
2026-04-29 11:58 36.37919 26.33229 24043 ft 336 kts 334°
2026-04-29 11:58 36.40065 26.32078 24051 ft 336 kts 335°
2026-04-29 11:59 36.42214 26.30926 24045 ft 336 kts 335°
2026-04-29 11:59 36.44359 26.29773 24048 ft 336 kts 335°
2026-04-29 11:59 36.46503 26.28623 24045 ft 336 kts 335°
2026-04-29 11:59 36.48647 26.27470 24048 ft 336 kts 335°
2026-04-29 12:00 36.50789 26.26319 24042 ft 336 kts 335°
2026-04-29 12:00 36.52937 26.25164 24049 ft 336 kts 335°
2026-04-29 12:00 36.55080 26.24007 24041 ft 336 kts 335°
2026-04-29 12:00 36.57266 26.23025 24039 ft 335 kts 347°
2026-04-29 12:01 36.59605 26.22809 24046 ft 339 kts 356°
2026-04-29 12:01 36.61967 26.22762 24047 ft 340 kts 357°
2026-04-29 12:01 36.64333 26.22674 24045 ft 340 kts 355°
2026-04-29 12:01 36.66694 26.22487 24046 ft 339 kts 353°
2026-04-29 12:02 36.69051 26.22266 24045 ft 339 kts 353°
2026-04-29 12:02 36.71404 26.22041 24049 ft 339 kts 353°
2026-04-29 12:02 36.73761 26.21823 24055 ft 339 kts 354°
2026-04-29 12:02 36.76083 26.21629 24053 ft 339 kts 354°
2026-04-29 12:03 36.78445 26.21432 24049 ft 339 kts 354°
2026-04-29 12:03 36.80802 26.21243 24049 ft 339 kts 354°
2026-04-29 12:03 36.83158 26.21045 24049 ft 339 kts 354°
2026-04-29 12:03 36.85513 26.20853 24050 ft 340 kts 354°
2026-04-29 12:04 36.87871 26.20658 24051 ft 339 kts 354°
2026-04-29 12:04 36.90233 26.20464 24051 ft 339 kts 354°
2026-04-29 12:04 36.92586 26.20268 24053 ft 339 kts 354°
2026-04-29 12:04 36.94941 26.20073 24047 ft 339 kts 354°
2026-04-29 12:05 36.97297 26.19876 24053 ft 339 kts 354°
2026-04-29 12:05 36.99651 26.19682 24051 ft 339 kts 354°
2026-04-29 12:05 37.02010 26.19487 24046 ft 339 kts 354°
2026-04-29 12:05 37.04365 26.19294 24054 ft 339 kts 354°
2026-04-29 12:06 37.06717 26.19099 24051 ft 339 kts 354°
2026-04-29 12:06 37.09073 26.18902 24053 ft 339 kts 354°
2026-04-29 12:06 37.11425 26.18709 24051 ft 339 kts 354°
2026-04-29 12:06 37.13751 26.18514 24046 ft 339 kts 354°
2026-04-29 12:07 37.16103 26.18319 24049 ft 339 kts 354°
2026-04-29 12:07 37.18459 26.18124 24053 ft 339 kts 354°
2026-04-29 12:07 37.20810 26.17925 24049 ft 339 kts 354°
2026-04-29 12:07 37.23167 26.17729 24058 ft 339 kts 354°
2026-04-29 12:08 37.25523 26.17533 24053 ft 339 kts 354°
2026-04-29 12:08 37.27880 26.17337 24054 ft 339 kts 354°
2026-04-29 12:08 37.30235 26.17141 24056 ft 339 kts 354°
2026-04-29 12:08 37.32591 26.16944 24056 ft 339 kts 354°
2026-04-29 12:09 37.34949 26.16749 24058 ft 340 kts 354°
2026-04-29 12:09 37.37309 26.16549 24059 ft 340 kts 354°
2026-04-29 12:09 37.39673 26.16352 24059 ft 340 kts 354°
2026-04-29 12:09 37.42030 26.16154 24063 ft 340 kts 354°
2026-04-29 12:10 37.44390 26.15958 24060 ft 340 kts 354°
2026-04-29 12:10 37.46749 26.15760 24062 ft 340 kts 354°
2026-04-29 12:10 37.49112 26.15561 24063 ft 340 kts 354°
2026-04-29 12:10 37.51471 26.15362 24062 ft 340 kts 354°
2026-04-29 12:11 37.53837 26.15163 24063 ft 340 kts 354°
2026-04-29 12:11 37.56198 26.14965 24071 ft 340 kts 354°
2026-04-29 12:11 37.58533 26.14767 24066 ft 340 kts 354°
2026-04-29 12:11 37.60897 26.14571 24055 ft 341 kts 354°
2026-04-29 12:12 37.63264 26.14376 24071 ft 341 kts 354°
2026-04-29 12:12 37.65625 26.14172 24067 ft 341 kts 354°
2026-04-29 12:12 37.67990 26.13973 24067 ft 341 kts 354°
2026-04-29 12:12 37.70354 26.13779 24067 ft 341 kts 354°
2026-04-29 12:13 37.72720 26.13572 24068 ft 340 kts 354°
2026-04-29 12:13 37.75078 26.13302 24066 ft 339 kts 348°
2026-04-29 12:13 37.77329 26.12485 24070 ft 335 kts 338°
2026-04-29 12:13 37.79496 26.11398 24070 ft 335 kts 336°
2026-04-29 12:14 37.81657 26.10304 24069 ft 335 kts 337°
2026-04-29 12:14 37.83848 26.09285 24073 ft 336 kts 339°
2026-04-29 12:14 37.86055 26.08313 24070 ft 336 kts 339°
2026-04-29 12:14 37.88259 26.07324 24072 ft 336 kts 339°
2026-04-29 12:15 37.90460 26.06331 24071 ft 336 kts 339°
2026-04-29 12:15 37.92660 26.05333 24070 ft 336 kts 338°
2026-04-29 12:15 37.94831 26.04349 24074 ft 335 kts 339°
2026-04-29 12:15 37.97028 26.03354 24073 ft 335 kts 338°
2026-04-29 12:16 37.99225 26.02355 24074 ft 336 kts 338°
2026-04-29 12:16 38.01423 26.01359 24075 ft 336 kts 339°
2026-04-29 12:16 38.03623 26.00359 24074 ft 336 kts 338°
2026-04-29 12:16 38.05819 25.99360 24075 ft 336 kts 338°
2026-04-29 12:17 38.08022 25.98359 24073 ft 336 kts 338°
2026-04-29 12:17 38.10216 25.97360 24076 ft 335 kts 338°
2026-04-29 12:17 38.12419 25.96358 24075 ft 336 kts 338°
2026-04-29 12:17 38.14613 25.95355 24072 ft 336 kts 338°
2026-04-29 12:18 38.16811 25.94351 24072 ft 335 kts 338°
2026-04-29 12:18 38.19008 25.93349 24071 ft 335 kts 338°
2026-04-29 12:18 38.21206 25.92349 24079 ft 336 kts 338°
2026-04-29 12:18 38.23373 25.91349 24080 ft 336 kts 338°
2026-04-29 12:19 38.25578 25.90362 24073 ft 336 kts 339°
2026-04-29 12:19 38.27807 25.89461 24083 ft 337 kts 341°
2026-04-29 12:19 38.30056 25.88616 24073 ft 337 kts 341°
2026-04-29 12:19 38.32296 25.87753 24074 ft 336 kts 341°
2026-04-29 12:20 38.34531 25.86872 24074 ft 336 kts 341°
2026-04-29 12:20 38.36764 25.85989 24076 ft 336 kts 340°
2026-04-29 12:20 38.38994 25.85110 24079 ft 336 kts 341°
2026-04-29 12:20 38.41228 25.84238 24077 ft 336 kts 341°
2026-04-29 12:21 38.43459 25.83364 24080 ft 335 kts 341°
2026-04-29 12:21 38.45692 25.82486 24081 ft 335 kts 341°
2026-04-29 12:21 38.47920 25.81610 24077 ft 335 kts 340°
2026-04-29 12:21 38.50152 25.80733 24083 ft 335 kts 340°
2026-04-29 12:22 38.52377 25.79854 24084 ft 335 kts 340°
2026-04-29 12:22 38.54609 25.78974 24085 ft 335 kts 340°
2026-04-29 12:22 38.56836 25.78096 24083 ft 335 kts 340°
2026-04-29 12:22 38.59064 25.77213 24086 ft 335 kts 340°
2026-04-29 12:23 38.61284 25.76318 24087 ft 335 kts 340°
2026-04-29 12:23 38.63514 25.75453 24086 ft 335 kts 341°
2026-04-29 12:23 38.65741 25.74579 24088 ft 335 kts 340°
2026-04-29 12:23 38.67964 25.73696 24088 ft 335 kts 340°
2026-04-29 12:24 38.70158 25.72822 24090 ft 334 kts 340°
2026-04-29 12:24 38.72385 25.71941 24089 ft 334 kts 340°
2026-04-29 12:24 38.74607 25.71064 24092 ft 335 kts 340°
2026-04-29 12:24 38.76829 25.70176 24090 ft 334 kts 340°
2026-04-29 12:25 38.79048 25.69295 24090 ft 334 kts 340°
2026-04-29 12:25 38.81274 25.68422 24091 ft 334 kts 340°
2026-04-29 12:25 38.85721 25.66648 24094 ft 334 kts 340°
2026-04-29 12:26 38.87944 25.65762 24093 ft 334 kts 340°
2026-04-29 12:26 38.90165 25.64877 24095 ft 334 kts 340°
2026-04-29 12:26 38.92387 25.63989 24093 ft 334 kts 340°
2026-04-29 12:26 38.94606 25.63103 24094 ft 334 kts 340°
2026-04-29 12:27 38.96823 25.62219 24093 ft 334 kts 340°
2026-04-29 12:27 38.99043 25.61331 24092 ft 334 kts 340°
2026-04-29 12:27 39.01261 25.60445 24091 ft 334 kts 340°
2026-04-29 12:27 39.03478 25.59558 24092 ft 334 kts 340°
2026-04-29 12:28 39.05695 25.58671 24091 ft 334 kts 340°
2026-04-29 12:28 39.07881 25.57795 24092 ft 334 kts 340°
2026-04-29 12:28 39.10096 25.56907 24094 ft 334 kts 340°
2026-04-29 12:28 39.12312 25.56018 24094 ft 333 kts 340°
2026-04-29 12:29 39.14525 25.55130 24097 ft 333 kts 340°
2026-04-29 12:29 39.16743 25.54239 24095 ft 333 kts 340°
2026-04-29 12:29 39.18957 25.53349 24098 ft 333 kts 340°
2026-04-29 12:29 39.21169 25.52460 24097 ft 333 kts 340°
2026-04-29 12:30 39.23380 25.51569 24097 ft 333 kts 340°
2026-04-29 12:30 39.25593 25.50679 24099 ft 333 kts 340°
2026-04-29 12:30 39.27803 25.49789 24098 ft 333 kts 340°
2026-04-29 12:30 39.30013 25.48897 24098 ft 333 kts 340°
2026-04-29 12:31 39.32224 25.48005 24095 ft 333 kts 340°
2026-04-29 12:31 39.34431 25.47113 24096 ft 333 kts 340°
2026-04-29 12:31 39.36641 25.46221 24098 ft 333 kts 340°
2026-04-29 12:31 39.38852 25.45326 24096 ft 332 kts 340°
2026-04-29 12:32 39.41061 25.44433 24097 ft 332 kts 340°
2026-04-29 12:32 39.43271 25.43538 24100 ft 332 kts 340°
2026-04-29 12:32 39.45476 25.42644 24100 ft 332 kts 340°
2026-04-29 12:32 39.47682 25.41750 24100 ft 332 kts 339°
2026-04-29 12:33 39.49886 25.40856 24100 ft 332 kts 339°
2026-04-29 12:33 39.52091 25.39962 24098 ft 332 kts 339°
2026-04-29 12:33 39.54291 25.39068 24102 ft 332 kts 339°
2026-04-29 12:33 39.56493 25.38172 24106 ft 332 kts 339°
2026-04-29 12:34 39.58695 25.37277 24105 ft 331 kts 339°
2026-04-29 12:34 39.60869 25.36394 24101 ft 331 kts 339°
2026-04-29 12:34 39.63069 25.35499 24102 ft 331 kts 339°
2026-04-29 12:34 39.65263 25.34603 24105 ft 331 kts 339°
2026-04-29 12:35 39.67460 25.33706 24103 ft 331 kts 339°
2026-04-29 12:35 39.69656 25.32810 24104 ft 331 kts 339°
2026-04-29 12:35 39.71848 25.31915 24102 ft 330 kts 339°
2026-04-29 12:35 39.74043 25.31019 24103 ft 330 kts 339°
2026-04-29 12:36 39.76235 25.30122 24102 ft 330 kts 339°
2026-04-29 12:36 39.78427 25.29226 24105 ft 330 kts 339°
2026-04-29 12:36 39.80620 25.28330 24104 ft 330 kts 339°
2026-04-29 12:36 39.82808 25.27432 24103 ft 330 kts 339°
2026-04-29 12:37 39.84256 25.26837 24108 ft 330 kts 339°
2026-04-29 12:37 39.86950 25.25732 24105 ft 330 kts 339°
2026-04-29 12:37 39.89141 25.24833 24106 ft 330 kts 339°
2026-04-29 12:38 39.91389 25.24336 24100 ft 334 kts 358°
2026-04-29 12:38 39.93690 25.24988 24103 ft 343 kts 15°
2026-04-29 12:38 39.95848 25.26397 24106 ft 351 kts 26°
2026-04-29 12:38 39.97915 25.28103 24105 ft 352 kts 28°
2026-04-29 12:39 39.99980 25.29828 24104 ft 352 kts 27°
2026-04-29 12:39 40.02078 25.31468 24107 ft 351 kts 26°
2026-04-29 12:39 40.04170 25.33012 24105 ft 350 kts 25°
2026-04-29 12:39 40.06294 25.34570 24106 ft 350 kts 25°
2026-04-29 12:40 40.08405 25.36155 24108 ft 351 kts 26°
2026-04-29 12:40 40.10511 25.37767 24109 ft 351 kts 26°
2026-04-29 12:40 40.12619 25.39373 24109 ft 351 kts 25°
2026-04-29 12:40 40.14725 25.40981 24110 ft 351 kts 26°
2026-04-29 12:41 40.16832 25.42588 24109 ft 351 kts 25°
2026-04-29 12:41 40.18939 25.44204 24109 ft 351 kts 26°
2026-04-29 12:41 40.21051 25.45810 24116 ft 351 kts 26°
2026-04-29 12:41 40.23158 25.47427 24116 ft 351 kts 25°
2026-04-29 12:42 40.25264 25.49043 24117 ft 351 kts 26°
2026-04-29 12:42 40.27376 25.50657 24119 ft 351 kts 26°
2026-04-29 12:42 40.29484 25.52274 24123 ft 351 kts 25°
2026-04-29 12:42 40.31591 25.53894 24121 ft 351 kts 26°
2026-04-29 12:43 40.32987 25.54966 24120 ft 351 kts 25°
2026-04-29 12:43 40.35097 25.56587 24120 ft 352 kts 26°
2026-04-29 12:43 40.37207 25.58205 24122 ft 351 kts 25°
2026-04-29 12:43 40.39315 25.59832 24125 ft 351 kts 25°
2026-04-29 12:44 40.41424 25.61457 24123 ft 352 kts 25°
2026-04-29 12:44 40.43535 25.63082 24121 ft 352 kts 26°
2026-04-29 12:44 40.45646 25.64709 24113 ft 352 kts 25°
2026-04-29 12:44 40.47756 25.66340 24109 ft 352 kts 25°
2026-04-29 12:45 40.49870 25.67969 24119 ft 352 kts 25°
2026-04-29 12:45 40.51983 25.69597 24123 ft 352 kts 25°
2026-04-29 12:45 40.54095 25.71229 24113 ft 352 kts 25°
2026-04-29 12:45 40.56209 25.72856 24119 ft 352 kts 25°
2026-04-29 12:46 40.58325 25.74491 24118 ft 352 kts 26°
2026-04-29 12:46 40.60429 25.76155 24115 ft 353 kts 26°
2026-04-29 12:46 40.62543 25.77789 24114 ft 352 kts 25°
2026-04-29 12:46 40.64732 25.79162 24107 ft 343 kts 10°
2026-04-29 12:47 40.67056 25.79298 24106 ft 330 kts 345°
2026-04-29 12:47 40.69093 25.78154 24112 ft 320 kts 321°
2026-04-29 12:47 40.70506 25.75958 24107 ft 314 kts 296°
2026-04-29 12:47 40.70994 25.73181 24115 ft 312 kts 273°
2026-04-29 12:48 40.71258 25.70397 24107 ft 307 kts 289°
2026-04-29 12:48 40.72463 25.68086 24111 ft 313 kts 315°
2026-04-29 12:48 40.74407 25.66744 24107 ft 324 kts 341°
2026-04-29 12:48 40.76680 25.66458 24112 ft 331 kts 353°
2026-04-29 12:49 40.78983 25.66432 24111 ft 333 kts
2026-04-29 12:49 40.81203 25.67462 24107 ft 349 kts 26°
2026-04-29 12:49 40.82982 25.69702 24105 ft 362 kts 51°
2026-04-29 12:49 40.83990 25.72780 24110 ft 371 kts 75°
2026-04-29 12:50 40.84047 25.76191 24107 ft 376 kts 99°
2026-04-29 12:50 40.83139 25.79405 24104 ft 375 kts 122°
2026-04-29 12:50 40.81436 25.81898 24103 ft 369 kts 146°
2026-04-29 12:50 40.79170 25.83357 24103 ft 359 kts 169°
2026-04-29 12:51 40.76731 25.83536 24103 ft 347 kts 194°
2026-04-29 12:51 40.74533 25.82439 24101 ft 333 kts 218°
2026-04-29 12:51 40.72965 25.80302 24108 ft 321 kts 243°
2026-04-29 12:51 40.72307 25.77556 24111 ft 314 kts 268°
2026-04-29 12:52 40.72681 25.74758 24103 ft 313 kts 293°
2026-04-29 12:52 40.73837 25.72326 24109 ft 314 kts 303°
2026-04-29 12:52 40.75027 25.69899 24106 ft 315 kts 299°
2026-04-29 12:52 40.76012 25.67318 24105 ft 315 kts 292°
2026-04-29 12:53 40.76812 25.64665 24102 ft 310 kts 297°
2026-04-29 12:53 40.78299 25.62603 24109 ft 318 kts 324°
2026-04-29 12:53 40.80413 25.61656 24109 ft 330 kts 349°
2026-04-29 12:53 40.82728 25.62039 24111 ft 345 kts 14°
2026-04-29 12:54 40.84798 25.63717 24112 ft 358 kts 38°
2026-04-29 12:54 40.86235 25.66387 24105 ft 369 kts 62°
2026-04-29 12:54 40.86827 25.69747 24113 ft 376 kts 86°
2026-04-29 12:54 40.86440 25.73108 24108 ft 378 kts 109°
2026-04-29 12:55 40.85428 25.76310 24109 ft 378 kts 114°
2026-04-29 12:55 40.84421 25.79520 24103 ft 378 kts 113°
2026-04-29 12:55 40.83251 25.82593 24100 ft 373 kts 121°
2026-04-29 12:55 40.82366 25.85806 24094 ft 376 kts 98°
2026-04-29 12:56 40.82458 25.89223 24095 ft 373 kts 75°
2026-04-29 12:56 40.83488 25.92304 24102 ft 364 kts 51°
2026-04-29 12:56 40.85020 25.94919 24118 ft 359 kts 50°
2026-04-29 12:56 40.86097 25.97919 24109 ft 369 kts 71°
2026-04-29 12:57 40.86658 26.01251 24107 ft 373 kts 76°
2026-04-29 12:57 40.87196 26.04614 24106 ft 374 kts 74°
2026-04-29 12:57 40.87846 26.07944 24103 ft 374 kts 72°
2026-04-29 12:57 40.88559 26.11252 24106 ft 374 kts 71°
2026-04-29 12:58 40.89269 26.14553 24105 ft 374 kts 72°
2026-04-29 12:58 40.89942 26.17872 24104 ft 374 kts 73°
2026-04-29 12:58 40.90603 26.21201 24107 ft 374 kts 72°
2026-04-29 12:58 40.91272 26.24528 24103 ft 375 kts 72°
2026-04-29 12:59 40.91940 26.27855 24105 ft 374 kts 72°
2026-04-29 12:59 40.92597 26.31139 24108 ft 375 kts 72°
2026-04-29 12:59 40.93263 26.34469 24108 ft 374 kts 72°
2026-04-29 12:59 40.93927 26.37795 24109 ft 374 kts 72°
2026-04-29 13:00 40.94591 26.41125 24106 ft 374 kts 72°
2026-04-29 13:00 40.95253 26.44455 24110 ft 374 kts 72°
2026-04-29 13:00 40.95911 26.47782 24114 ft 375 kts 72°
2026-04-29 13:00 40.96573 26.51115 24111 ft 374 kts 72°
2026-04-29 13:01 40.97249 26.54428 24091 ft 368 kts 69°
2026-04-29 13:01 40.86714 26.00503 621 ft 377 kts 107°
2026-04-29 13:01 40.87267 26.02868 1092 ft 108 kts 253°
2026-04-29 13:01 40.87109 26.02159 986 ft 126 kts 249°
2026-04-29 13:02 40.86810 26.00934 964 ft 142 kts 258°
2026-04-29 13:02 40.86571 25.99792 562 ft 131 kts 257°
2026-04-29 13:02 40.86307 25.98747 427 ft 115 kts 250°
2026-04-29 13:02 40.86066 25.97750 192 ft 113 kts 252°
2026-04-29 13:03 40.85843 25.96798 51 ft 107 kts 251°
2026-04-29 13:03 40.85624 25.95894 24 ft 99 kts 251°
2026-04-29 13:03 40.85503 25.95389 21 ft 3 kts 256°
2026-04-29 13:03 40.85490 25.95325 21 ft 44 kts 253°